Location: Newark
(49.2191°N, 12.6671°E)
Time: 05:18:08
(UTC+00:00)

Transit 4A - Pass Details

Date: 30 January 2020
Orbit: 872 x 973 km, 66.8° (Epoch: 17 February)

Event Time Altitude Azimuth Distance (km) Brightness Sun altitude
Rises 05:04:37 0° 216° (SW) 3,536 10.7 -16.3°
Reaches altitude 10° 05:07:08 10° 217° (SW) 2,583 10.0 -15.9°
Maximum altitude 05:13:08 83° 306° (NW) 903 7.7 -14.9°
Drops below altitude 10° 05:19:02 10° 35° (NE) 2,544 10.5 -13.9°
Sets 05:21:31 0° 36° (NE) 3,479 11.2 -13.5°
